MDT,Max TemperatureF,Mean TemperatureF,Min TemperatureF,Max Dew PointF,MeanDew PointF,Min DewpointF,Max Humidity, Mean Humidity, Min Humidity, Max Sea Level PressureIn, Mean Sea Level PressureIn, Min Sea Level PressureIn, Max VisibilityMiles, Mean VisibilityMiles, Min VisibilityMiles, Max Wind SpeedMPH, Mean Wind SpeedMPH, Max Gust SpeedMPH,PrecipitationIn, CloudCover, Events, WindDirDegrees
2012-10-1,81,60,39,33,27,24,64,39,13,30.17,30.09,30.02,10,10,10,21,8,26,0.00,0,,43
2012-10-2,79,58,36,30,27,25,64,39,13,30.08,29.99,29.89,10,10,10,20,7,24,0.00,0,,72
2012-10-3,82,61,39,28,24,19,54,32,10,30.01,29.94,29.88,10,10,10,22,8,28,0.00,0,,48
2012-10-4,80,60,39,30,25,21,55,34,12,30.10,29.99,29.90,10,10,10,25,9,31,0.00,0,,171
2012-10-5,76,59,42,28,23,16,53,33,13,30.04,29.93,29.85,10,10,10,21,9,31,0.00,0,,276
2012-10-6,71,54,36,24,16,0,49,29,8,29.99,29.92,29.87,10,10,10,20,7,28,0.00,0,,45
2012-10-7,67,47,26,14,5,-4,46,26,6,30.09,30.02,29.94,10,10,10,17,8,24,0.00,0,,37
2012-10-8,71,49,26,20,9,2,46,27,8,30.15,30.05,29.96,10,10,10,14,5,18,0.00,0,,55
2012-10-9,73,53,33,24,21,17,56,35,14,30.07,30.00,29.95,10,10,10,15,6,18,0.00,0,,35
2012-10-10,76,55,33,32,24,21,61,37,13,30.13,30.02,29.93,10,10,10,18,5,24,0.00,0,,155
2012-10-11,79,56,33,42,28,21,64,39,14,30.09,29.98,29.91,10,10,10,29,7,39,0.01,2,Rain,138
2012-10-12,63,50,37,48,41,31,85,62,39,30.12,29.98,29.81,10,9,2,39,12,48,0.19,6,Rain-Thunderstorm,174
2012-10-13,57,45,33,38,36,31,89,70,51,30.22,30.13,30.04,10,10,10,14,5,25,T,7,,311
2012-10-14,68,51,33,37,34,31,92,61,29,30.33,30.24,30.17,10,10,10,13,6,15,0.00,0,,72
2012-10-15,70,50,29,35,29,18,92,53,14,30.25,30.12,29.99,10,10,10,16,4,24,0.00,0,,40
2012-10-16,73,52,30,29,27,21,78,47,15,30.05,29.91,29.76,10,10,10,17,6,22,0.00,0,,49
2012-10-17,66,49,31,36,12,-7,60,33,5,30.08,29.93,29.78,10,10,10,21,8,25,0.00,0,,350
2012-10-18,70,48,26,16,11,4,55,32,9,30.18,30.11,30.05,10,10,10,21,9,30,0.00,0,,28
2012-10-19,72,51,29,22,18,15,63,38,12,30.14,30.04,29.95,10,10,10,15,8,18,0.00,0,,50
2012-10-20,75,52,28,22,18,11,63,36,9,30.03,29.90,29.79,10,10,10,20,5,28,0.00,0,,86
2012-10-21,71,51,30,33,27,17,69,47,24,29.96,29.87,29.81,10,10,10,20,5,28,0.00,1,,110
2012-10-22,69,50,31,33,29,25,75,50,24,29.98,29.88,29.82,10,10,10,22,7,25,0.00,0,,120
2012-10-23,72,58,43,30,27,23,53,35,17,29.91,29.81,29.75,10,10,10,24,7,31,0.00,1,,205
2012-10-24,69,50,30,29,22,8,64,37,10,29.95,29.80,29.66,10,10,10,35,11,43,0.00,1,,6
2012-10-25,52,36,20,20,13,8,74,46,17,30.18,30.09,29.95,10,10,6,21,7,26,T,1,,1
2012-10-26,53,37,20,12,4,-10,62,35,8,30.40,30.26,30.19,10,10,9,14,5,17,T,0,Snow,141
2012-10-27,58,37,15,8,1,-4,53,32,10,30.31,30.20,30.11,10,10,9,20,6,28,0.00,0,Snow,27
2012-10-28,65,46,26,17,13,7,55,35,15,30.22,30.15,30.08,10,10,10,17,8,23,0.00,0,,65
2012-10-29,68,47,25,23,16,11,68,40,11,30.28,30.20,30.13,10,10,10,15,6,21,0.00,0,,50
2012-10-30,70,48,26,22,17,15,63,39,14,30.26,30.16,30.07,10,10,10,17,7,21,0.00,0,,67
2012-10-31,67,46,24,19,16,13,60,38,15,30.24,30.15,30.08,10,10,10,14,6,17,0.00,0,,121